Terminal Aerodrome Forecast
Issued by NWS Chicago, IL

Home | Current Version | Previous Version | Graphics & Text | Print | Product List | Glossary On
Versions: 1 2 3 4 5 6 7 8 9 10 11 12 13 14 15 16 17 18 19 20 21 22 23 24 25 26 27 28 29 30 31 32 33 34
000
FTUS43 KLOT 250307 AAA
TAFRFD
TAF AMD
KRFD 250307Z 2503/2524 09012KT P6SM VCSH OVC050
      TEMPO 2504/2507 5SM -RA OVC040
     FM251300 09015KT 4SM -RA OVC015
     FM251600 07015G21KT 3SM RA BR OVC007
     FM252200 05015G24KT 6SM -RA SCT008 OVC015=

USA.gov is the U.S. government's official web portal to all federal, state and local government web resources and services.